,,Stat5,,Stat1,,Stat2,,Stat3,,Stat4,,Wind1,,Wind1,
time,status,PA1M_AVG,status,PR1M_SUM,status,RH1M_AVG,status,SR1M_AVG,status,TA1M_AVG,status,W1dAve1m,status,W1sAve1m,
2001-06-18, 00:00:00,VALID,918.772,VALID,0,VALID,91.8569,VALID,-0.0169808,VALID,18.8975,VALID,34,VALID,0,
2001-06-18, 00:01:00,VALID,918.782,VALID,0,VALID,91.6547,VALID,-0.0169808,VALID,18.9497,VALID,34,VALID,0,
2001-06-18, 00:02:00,VALID,918.783,VALID,0,VALID,91.5008,VALID,-0.0339617,VALID,18.972,VALID,34,VALID,0.171638,
2001-06-18, 00:03:00,VALID,918.773,VALID,0,VALID,91.4691,VALID,-0.0169808,VALID,18.9725,VALID,34,VALID,0.0431858,
2001-06-18, 00:04:00,VALID,918.777,VALID,0,VALID,91.7081,VALID,-0.0339617,VALID,18.9437,VALID,34,VALID,0,
2001-06-18, 00:05:00,VALID,918.774,VALID,0,VALID,91.9675,VALID,-0.0169808,VALID,18.9243,VALID,34,VALID,0,
2001-06-18, 00:06:00,VALID,918.789,VALID,0,VALID,91.9128,VALID,-0.0169808,VALID,18.934,VALID,34,VALID,0,
2001-06-18, 00:07:00,VALID,918.784,VALID,0,VALID,91.923,VALID,-0.0169808,VALID,18.9335,VALID,34,VALID,0.0635557,
2001-06-18, 00:08:00,VALID,918.768,VALID,0,VALID,91.9891,VALID,0,VALID,18.9499,VALID,21,VALID,0.2206,
2001-06-18, 00:09:00,VALID,918.767,VALID,0,VALID,92.1354,VALID,0,VALID,18.943,VALID,6,VALID,0.186384,
2001-06-18, 00:10:00,VALID,918.74,VALID,0,VALID,92.335,VALID,0,VALID,18.9432,VALID,342,VALID,0.252262,
2001-06-18, 00:11:00,VALID,918.736,VALID,0,VALID,92.4418,VALID,-0.0169808,VALID,18.966,VALID,329,VALID,0.0431858,
2001-06-18, 00:12:00,VALID,918.728,VALID,0,VALID,92.2257,VALID,-0.0509425,VALID,18.9727,VALID,330,VALID,0.0191201,
2001-06-18, 00:13:00,VALID,918.721,VALID,0,VALID,91.8671,VALID,0,VALID,18.9564,VALID,332,VALID,0.00721154,
2001-06-18, 00:14:00,VALID,918.715,VALID,0,VALID,91.8772,VALID,-0.0339617,VALID,18.9464,VALID,332,VALID,0.0251953,
2001-06-18, 00:15:00,VALID,918.708,VALID,0,VALID,91.7959,VALID,-0.0509425,VALID,18.9596,VALID,332,VALID,0.113176,
2001-06-18, 00:16:00,VALID,918.693,VALID,0,VALID,91.5695,VALID,-0.0339617,VALID,19.0018,VALID,307,VALID,0.302734,
2001-06-18, 00:17:00,VALID,918.687,VALID,0,VALID,91.3635,VALID,-0.0169808,VALID,19.0113,VALID,304,VALID,0.173277,
2001-06-18, 00:18:00,VALID,918.675,VALID,0,VALID,91.6191,VALID,-0.0339617,VALID,18.9852,VALID,304,VALID,0.0374178,
2001-06-18, 00:19:00,VALID,918.66,VALID,0,VALID,91.6979,VALID,-0.0339617,VALID,19.0207,VALID,297,VALID,0.0264423,
2001-06-18, 00:20:00,VALID,918.64,VALID,0,VALID,91.9472,VALID,-0.0509425,VALID,19.0828,VALID,252,VALID,0.58491,
2001-06-18, 00:21:00,VALID,918.644,VALID,0,VALID,92.2486,VALID,0,VALID,19.1404,VALID,250,VALID,0.521434,
2001-06-18, 00:22:00,VALID,918.628,VALID,0,VALID,92.1099,VALID,-0.0169808,VALID,19.179,VALID,227,VALID,0.398438,
2001-06-18, 00:23:00,VALID,918.617,VALID,0,VALID,91.965,VALID,0,VALID,19.1921,VALID,229,VALID,0.0656672,
2001-06-18, 00:24:00,VALID,918.619,VALID,0,VALID,91.8544,VALID,-0.0339617,VALID,19.1953,VALID,230,VALID,0.0695312,
2001-06-18, 00:25:00,VALID,918.623,VALID,0,VALID,91.7488,VALID,-0.0169808,VALID,19.2085,VALID,264,VALID,0.284455,
2001-06-18, 00:26:00,VALID,918.614,VALID,0,VALID,91.8099,VALID,0,VALID,19.2117,VALID,313,VALID,0.265008,
2001-06-18, 00:27:00,VALID,918.628,VALID,0,VALID,91.4856,VALID,0,VALID,19.1817,VALID,308,VALID,0.0264423,
2001-06-18, 00:28:00,VALID,918.604,VALID,0,VALID,91.4703,VALID,0,VALID,19.166,VALID,308,VALID,0,
2001-06-18, 00:29:00,VALID,918.595,VALID,0,VALID,91.5988,VALID,0,VALID,19.1504,VALID,308,VALID,0.051883,
2001-06-18, 00:30:00,VALID,918.587,VALID,0,VALID,91.7742,VALID,0,VALID,19.1238,VALID,318,VALID,0.182227,
2001-06-18, 00:31:00,VALID,918.567,VALID,0,VALID,91.7348,VALID,0,VALID,19.1049,VALID,334,VALID,0.0842483,
2001-06-18, 00:32:00,VALID,918.569,VALID,0,VALID,91.8633,VALID,0,VALID,19.0692,VALID,334,VALID,0,
2001-06-18, 00:33:00,VALID,918.538,VALID,0,VALID,92.0286,VALID,0,VALID,19.0659,VALID,343,VALID,0.174479,
2001-06-18, 00:34:00,VALID,918.521,VALID,0,VALID,92.0171,VALID,-0.0169808,VALID,19.0625,VALID,355,VALID,0.247738,
2001-06-18, 00:35:00,VALID,918.491,VALID,0,VALID,91.862,VALID,0.0169808,VALID,19.053,VALID,355,VALID,0.24399,
2001-06-18, 00:36:00,VALID,918.466,VALID,0,VALID,92.068,VALID,0,VALID,19.0175,VALID,355,VALID,0,
2001-06-18, 00:37:00,VALID,918.442,VALID,0,VALID,92.2168,VALID,0,VALID,18.9979,VALID,355,VALID,0,
2001-06-18, 00:38:00,VALID,918.419,VALID,0,VALID,92.2486,VALID,-0.0169808,VALID,19.0009,VALID,18,VALID,0,
2001-06-18, 00:39:00,VALID,918.403,VALID,0,VALID,91.6013,VALID,0,VALID,18.9884,VALID,42,VALID,0,
2001-06-18, 00:40:00,VALID,918.377,VALID,0,VALID,91.1384,VALID,-0.0169808,VALID,18.9949,VALID,42,VALID,0,
2001-06-18, 00:41:00,VALID,918.361,VALID,0,VALID,91.3902,VALID,0,VALID,19.0431,VALID,42,VALID,0,
2001-06-18, 00:42:00,VALID,918.35,VALID,0,VALID,91.45,VALID,0.0169808,VALID,19.056,VALID,42,VALID,0,
2001-06-18, 00:43:00,VALID,918.349,VALID,0,VALID,91.3851,VALID,0,VALID,19.0821,VALID,42,VALID,0,
2001-06-18, 00:44:00,VALID,918.329,VALID,0,VALID,91.0876,VALID,0,VALID,19.0885,VALID,42,VALID,0,
2001-06-18, 00:45:00,VALID,918.313,VALID,0,VALID,90.8612,VALID,0,VALID,19.0918,VALID,43,VALID,0,
2001-06-18, 00:46:00,VALID,918.298,VALID,0,VALID,90.7163,VALID,0,VALID,19.0945,VALID,45,VALID,0,
2001-06-18, 00:47:00,VALID,918.295,VALID,0,VALID,90.8002,VALID,0,VALID,19.0952,VALID,45,VALID,0,
2001-06-18, 00:48:00,VALID,918.279,VALID,0,VALID,90.8536,VALID,-0.0169808,VALID,19.0918,VALID,45,VALID,0,
2001-06-18, 00:49:00,VALID,918.274,VALID,0,VALID,91.1028,VALID,-0.0169808,VALID,19.053,VALID,45,VALID,0,
2001-06-18, 00:50:00,VALID,918.238,VALID,0,VALID,91.2364,VALID,0,VALID,18.9949,VALID,45,VALID,0,
2001-06-18, 00:51:00,VALID,918.231,VALID,0,VALID,91.4525,VALID,-0.0169808,VALID,18.9566,VALID,45,VALID,0,
2001-06-18, 00:52:00,VALID,918.232,VALID,0,VALID,91.5835,VALID,-0.0169808,VALID,18.9174,VALID,45,VALID,0,
2001-06-18, 00:53:00,VALID,918.22,VALID,0,VALID,91.6484,VALID,0,VALID,18.9047,VALID,45,VALID,0,
2001-06-18, 00:54:00,VALID,918.208,VALID,0,VALID,91.7857,VALID,-0.0169808,VALID,18.8689,VALID,45,VALID,0,
2001-06-18, 00:55:00,VALID,918.198,VALID,0,VALID,91.6662,VALID,0,VALID,18.8428,VALID,45,VALID,0,
2001-06-18, 00:56:00,VALID,918.185,VALID,0,VALID,91.7679,VALID,-0.0169808,VALID,18.7887,VALID,45,VALID,0.0185547,
2001-06-18, 00:57:00,VALID,918.165,VALID,0,VALID,92.0871,VALID,-0.0169808,VALID,18.7015,VALID,45,VALID,0.329327,
2001-06-18, 00:58:00,VALID,918.137,VALID,0,VALID,92.4609,VALID,0,VALID,18.6267,VALID,45,VALID,0.237664,
2001-06-18, 00:59:00,VALID,918.122,VALID,0,VALID,92.7699,VALID,0,VALID,18.5847,VALID,48,VALID,0.307692,
2001-06-18, 01:00:00,VALID,918.1,VALID,0,VALID,92.803,VALID,0,VALID,18.5654,VALID,50,VALID,0.233758,
2001-06-18, 01:01:00,VALID,918.095,VALID,0,VALID,92.6339,VALID,0,VALID,18.5331,VALID,58,VALID,0.462941,
2001-06-18, 01:02:00,VALID,918.077,VALID,0,VALID,92.8513,VALID,0,VALID,18.5172,VALID,67,VALID,0.580078,
2001-06-18, 01:03:00,VALID,918.075,VALID,0,VALID,93.0408,VALID,0,VALID,18.5105,VALID,70,VALID,0.467905,
2001-06-18, 01:04:00,VALID,918.076,VALID,0,VALID,93.1234,VALID,0,VALID,18.4943,VALID,70,VALID,0.545313,
2001-06-18, 01:05:00,VALID,918.07,VALID,0,VALID,93.1972,VALID,0,VALID,18.5075,VALID,70,VALID,0.535056,
2001-06-18, 01:06:00,VALID,918.07,VALID,0,VALID,93.1183,VALID,0,VALID,18.5132,VALID,67,VALID,0.614309,
2001-06-18, 01:07:00,VALID,918.057,VALID,0,VALID,93.1247,VALID,0,VALID,18.4976,VALID,63,VALID,0.389623,
2001-06-18, 01:08:00,VALID,918.042,VALID,0,VALID,93.3129,VALID,0,VALID,18.4876,VALID,63,VALID,0.391859,
2001-06-18, 01:09:00,VALID,918.032,VALID,0,VALID,93.318,VALID,-0.0169808,VALID,18.4851,VALID,66,VALID,0.222756,
2001-06-18, 01:10:00,VALID,918.029,VALID,0,VALID,93.4578,VALID,0.0169808,VALID,18.4948,VALID,66,VALID,0.00878906,
2001-06-18, 01:11:00,VALID,918.006,VALID,0,VALID,93.4782,VALID,0,VALID,18.4876,VALID,66,VALID,0,
2001-06-18, 01:12:00,VALID,918.001,VALID,0,VALID,93.3866,VALID,0,VALID,18.5264,VALID,66,VALID,0.00078125,
2001-06-18, 01:13:00,VALID,917.983,VALID,0,VALID,93.393,VALID,0,VALID,18.5522,VALID,66,VALID,0,
2001-06-18, 01:14:00,VALID,917.981,VALID,0,VALID,93.1768,VALID,0,VALID,18.5619,VALID,66,VALID,0.0612664,
2001-06-18, 01:15:00,VALID,917.975,VALID,0,VALID,93.1298,VALID,-0.0339617,VALID,18.5753,VALID,55,VALID,0.351763,
2001-06-18, 01:16:00,VALID,917.978,VALID,0,VALID,92.9759,VALID,0,VALID,18.5877,VALID,50,VALID,0.330387,
2001-06-18, 01:17:00,VALID,917.977,VALID,0,VALID,92.7152,VALID,0,VALID,18.6207,VALID,50,VALID,0.486378,
2001-06-18, 01:18:00,VALID,917.987,VALID,0,VALID,92.4863,VALID,0,VALID,18.656,VALID,50,VALID,0.385938,
2001-06-18, 01:19:00,VALID,917.968,VALID,0,VALID,92.1697,VALID,0,VALID,18.6982,VALID,51,VALID,0.46136,
2001-06-18, 01:20:00,VALID,917.958,VALID,0,VALID,92.0858,VALID,0,VALID,18.7501,VALID,51,VALID,0.725391,
2001-06-18, 01:21:00,VALID,917.924,VALID,0,VALID,91.8404,VALID,0,VALID,18.7462,VALID,47,VALID,0.837139,
2001-06-18, 01:22:00,VALID,917.9,VALID,0,VALID,91.8912,VALID,0,VALID,18.7015,VALID,48,VALID,0.827508,
2001-06-18, 01:23:00,VALID,917.885,VALID,0,VALID,92.143,VALID,0,VALID,18.6526,VALID,47,VALID,0.780649,
2001-06-18, 01:24:00,VALID,917.859,VALID,0,VALID,92.4164,VALID,0,VALID,18.6168,VALID,54,VALID,0.782895,
2001-06-18, 01:25:00,VALID,917.844,VALID,0,VALID,92.5957,VALID,0,VALID,18.6203,VALID,54,VALID,0.654848,
2001-06-18, 01:26:00,VALID,917.812,VALID,0,VALID,92.4431,VALID,0,VALID,18.6533,VALID,43,VALID,0.250391,
2001-06-18, 01:27:00,VALID,917.812,VALID,0,VALID,92.2117,VALID,-0.0509425,VALID,18.65,VALID,218,VALID,0.317356,
2001-06-18, 01:28:00,VALID,917.792,VALID,0,VALID,92.2613,VALID,-0.0849042,VALID,18.6505,VALID,221,VALID,0.132813,
2001-06-18, 01:29:00,VALID,917.774,VALID,0,VALID,92.1888,VALID,-0.0339617,VALID,18.6662,VALID,205,VALID,0.00240385,
2001-06-18, 01:30:00,VALID,917.757,VALID,0,VALID,92.1634,VALID,-0.0339617,VALID,18.6823,VALID,86,VALID,0.000411184,
2001-06-18, 01:31:00,VALID,917.752,VALID,0,VALID,92.0527,VALID,-0.0509425,VALID,18.6826,VALID,68,VALID,0.584936,
2001-06-18, 01:32:00,VALID,917.752,VALID,0,VALID,91.7259,VALID,-0.0509425,VALID,18.6952,VALID,51,VALID,0.367804,
2001-06-18, 01:33:00,VALID,917.749,VALID,0,VALID,91.6611,VALID,-0.0339617,VALID,18.7275,VALID,336,VALID,0.241386,
2001-06-18, 01:34:00,VALID,917.75,VALID,0,VALID,91.614,VALID,-0.0679233,VALID,18.7405,VALID,336,VALID,0.0146484,
2001-06-18, 01:35:00,VALID,917.739,VALID,0,VALID,91.6954,VALID,-0.0339617,VALID,18.7603,VALID,336,VALID,0.063978,
2001-06-18, 01:36:00,VALID,917.719,VALID,0,VALID,91.6611,VALID,-0.0339617,VALID,18.7725,VALID,340,VALID,0.317578,
2001-06-18, 01:37:00,VALID,917.723,VALID,0,VALID,91.7132,VALID,-0.0339617,VALID,18.7538,VALID,8,VALID,0.580529,
2001-06-18, 01:38:00,VALID,917.713,VALID,0,VALID,91.8709,VALID,-0.0339617,VALID,18.7245,VALID,11,VALID,0.48088,
2001-06-18, 01:39:00,VALID,917.709,VALID,0,VALID,91.8315,VALID,-0.0679233,VALID,18.7024,VALID,16,VALID,0.272035,
2001-06-18, 01:40:00,VALID,917.693,VALID,0,VALID,91.8187,VALID,-0.0679233,VALID,18.6826,VALID,16,VALID,0.202508,
2001-06-18, 01:41:00,VALID,917.675,VALID,0,VALID,91.244,VALID,-0.0169808,VALID,18.6826,VALID,49,VALID,0.283854,
2001-06-18, 01:42:00,VALID,917.663,VALID,0,VALID,91.3241,VALID,-0.0339617,VALID,18.6657,VALID,142,VALID,0.264648,
2001-06-18, 01:43:00,VALID,917.646,VALID,0,VALID,91.2542,VALID,0,VALID,18.6533,VALID,158,VALID,0.294764,
2001-06-18, 01:44:00,VALID,917.644,VALID,0,VALID,91.3076,VALID,-0.0679233,VALID,18.647,VALID,159,VALID,0.311719,
2001-06-18, 01:45:00,VALID,917.64,VALID,0,VALID,91.2491,VALID,-0.0169808,VALID,18.647,VALID,156,VALID,0.410657,
2001-06-18, 01:46:00,VALID,917.629,VALID,0,VALID,91.0545,VALID,-0.0679233,VALID,18.6572,VALID,146,VALID,0.26398,
2001-06-18, 01:47:00,VALID,917.61,VALID,0,VALID,91.3394,VALID,-0.0339617,VALID,18.6634,VALID,154,VALID,0.432292,
2001-06-18, 01:48:00,VALID,917.597,VALID,0,VALID,91.7971,VALID,0,VALID,18.6793,VALID,163,VALID,0.496299,
2001-06-18, 01:49:00,VALID,917.587,VALID,0,VALID,92.012,VALID,-0.0169808,VALID,18.6826,VALID,163,VALID,0.295873,
2001-06-18, 01:50:00,VALID,917.571,VALID,0,VALID,92.1023,VALID,-0.0169808,VALID,18.663,VALID,163,VALID,0.322461,
2001-06-18, 01:51:00,VALID,917.57,VALID,0,VALID,92.2638,VALID,-0.0679233,VALID,18.6701,VALID,163,VALID,0.00485642,
2001-06-18, 01:52:00,VALID,917.576,VALID,0,VALID,92.1201,VALID,-0.0509425,VALID,18.6833,VALID,163,VALID,0.134766,
2001-06-18, 01:53:00,VALID,917.553,VALID,0,VALID,91.9586,VALID,-0.0679233,VALID,18.6664,VALID,163,VALID,0.0268429,
2001-06-18, 01:54:00,VALID,917.545,VALID,0,VALID,91.9306,VALID,-0.0509425,VALID,18.6537,VALID,163,VALID,0,
2001-06-18, 01:55:00,VALID,917.519,VALID,0,VALID,92.1112,VALID,-0.0339617,VALID,18.6277,VALID,163,VALID,0,
2001-06-18, 01:56:00,VALID,917.511,VALID,0,VALID,92.2308,VALID,-0.0339617,VALID,18.6147,VALID,163,VALID,0,
2001-06-18, 01:57:00,VALID,917.514,VALID,0,VALID,92.0807,VALID,-0.0169808,VALID,18.6053,VALID,163,VALID,0,
2001-06-18, 01:58:00,VALID,917.501,VALID,0,VALID,91.7348,VALID,-0.101885,VALID,18.5857,VALID,163,VALID,0,
2001-06-18, 01:59:00,VALID,917.485,VALID,0,VALID,92.0705,VALID,-0.0339617,VALID,18.5954,VALID,147,VALID,0,
2001-06-18, 02:00:00,VALID,917.484,VALID,0,VALID,91.9421,VALID,-0.0339617,VALID,18.5792,VALID,146,VALID,0,
2001-06-18, 02:01:00,VALID,917.474,VALID,0,VALID,91.7882,VALID,-0.0169808,VALID,18.5665,VALID,146,VALID,0,
2001-06-18, 02:02:00,VALID,917.481,VALID,0,VALID,91.2554,VALID,-0.0339617,VALID,18.5402,VALID,146,VALID,0,
2001-06-18, 02:03:00,VALID,917.476,VALID,0,VALID,91.3483,VALID,-0.0169808,VALID,18.5204,VALID,145,VALID,0,
2001-06-18, 02:04:00,VALID,917.462,VALID,0,VALID,90.9909,VALID,-0.0339617,VALID,18.5276,VALID,145,VALID,0,
2001-06-18, 02:05:00,VALID,917.473,VALID,0,VALID,91.3266,VALID,-0.0339617,VALID,18.5271,VALID,145,VALID,0,
2001-06-18, 02:06:00,VALID,917.464,VALID,0,VALID,91.7056,VALID,-0.0169808,VALID,18.5372,VALID,145,VALID,0,
2001-06-18, 02:07:00,VALID,917.47,VALID,0,VALID,92.2346,VALID,-0.0679233,VALID,18.5338,VALID,144,VALID,0,
2001-06-18, 02:08:00,VALID,917.466,VALID,0,VALID,92.377,VALID,-0.0509425,VALID,18.531,VALID,144,VALID,0,
2001-06-18, 02:09:00,VALID,917.468,VALID,0,VALID,92.6733,VALID,-0.0509425,VALID,18.5114,VALID,144,VALID,0,
2001-06-18, 02:10:00,VALID,917.462,VALID,0,VALID,92.6885,VALID,-0.0169808,VALID,18.4888,VALID,107,VALID,0,
2001-06-18, 02:11:00,VALID,917.464,VALID,0,VALID,92.7635,VALID,0,VALID,18.4277,VALID,63,VALID,0,
2001-06-18, 02:12:00,VALID,917.474,VALID,0,VALID,93.1527,VALID,-0.0169808,VALID,18.3564,VALID,63,VALID,0,
2001-06-18, 02:13:00,VALID,917.456,VALID,0,VALID,93.482,VALID,-0.0339617,VALID,18.2985,VALID,59,VALID,0,
2001-06-18, 02:14:00,VALID,917.441,VALID,0,VALID,93.7961,VALID,-0.0339617,VALID,18.2531,VALID,54,VALID,0,
2001-06-18, 02:15:00,VALID,917.445,VALID,0,VALID,93.9652,VALID,-0.0339617,VALID,18.2339,VALID,51,VALID,0.214527,
2001-06-18, 02:16:00,VALID,917.412,VALID,0,VALID,93.8737,VALID,-0.0339617,VALID,18.2012,VALID,35,VALID,0.575977,
2001-06-18, 02:17:00,VALID,917.411,VALID,0,VALID,93.2353,VALID,-0.0509425,VALID,18.179,VALID,40,VALID,0.601963,
2001-06-18, 02:18:00,VALID,917.395,VALID,0,VALID,92.4914,VALID,-0.0339617,VALID,18.1694,VALID,55,VALID,0.412623,
2001-06-18, 02:19:00,VALID,917.366,VALID,0,VALID,92.2168,VALID,-0.0339617,VALID,18.2086,VALID,64,VALID,0.374399,
2001-06-18, 02:20:00,VALID,917.323,VALID,0,VALID,91.8175,VALID,-0.0339617,VALID,18.2404,VALID,61,VALID,0.473067,
2001-06-18, 02:21:00,VALID,917.31,VALID,0,VALID,91.4182,VALID,-0.0339617,VALID,18.3114,VALID,60,VALID,0.3748,
2001-06-18, 02:22:00,VALID,917.28,VALID,0,VALID,91.5352,VALID,-0.0339617,VALID,18.3924,VALID,56,VALID,0.490625,
2001-06-18, 02:23:00,VALID,917.27,VALID,0,VALID,91.3915,VALID,-0.0339617,VALID,18.4309,VALID,56,VALID,0.558066,
2001-06-18, 02:24:00,VALID,917.278,VALID,0,VALID,91.0736,VALID,-0.0339617,VALID,18.424,VALID,108,VALID,0.361328,
2001-06-18, 02:25:00,VALID,917.272,VALID,0,VALID,91.2249,VALID,-0.0169808,VALID,18.4178,VALID,162,VALID,0.244391,
2001-06-18, 02:26:00,VALID,917.289,VALID,0,VALID,91.2567,VALID,-0.0169808,VALID,18.4178,VALID,141,VALID,0.334498,
2001-06-18, 02:27:00,VALID,917.29,VALID,0,VALID,91.3686,VALID,-0.0169808,VALID,18.4175,VALID,141,VALID,0.133013,
2001-06-18, 02:28:00,VALID,917.283,VALID,0,VALID,91.4322,VALID,-0.0679233,VALID,18.4115,VALID,141,VALID,0,
2001-06-18, 02:29:00,VALID,917.264,VALID,0,VALID,91.806,VALID,-0.0679233,VALID,18.4277,VALID,141,VALID,0,
2001-06-18, 02:30:00,VALID,917.244,VALID,0,VALID,91.8569,VALID,-0.0509425,VALID,18.4208,VALID,76,VALID,0.413867,
2001-06-18, 02:31:00,VALID,917.216,VALID,0,VALID,91.8467,VALID,-0.0509425,VALID,18.376,VALID,52,VALID,0.687289,
2001-06-18, 02:32:00,VALID,917.207,VALID,0,VALID,92.1023,VALID,-0.0679233,VALID,18.3179,VALID,54,VALID,0.652539,
2001-06-18, 02:33:00,VALID,917.218,VALID,0,VALID,92.1824,VALID,-0.0509425,VALID,18.2665,VALID,72,VALID,0.648237,
2001-06-18, 02:34:00,VALID,917.227,VALID,0,VALID,92.302,VALID,-0.0509425,VALID,18.2533,VALID,60,VALID,0.288857,
2001-06-18, 02:35:00,VALID,917.225,VALID,0,VALID,92.2193,VALID,-0.0509425,VALID,18.2432,VALID,57,VALID,0.223558,
2001-06-18, 02:36:00,VALID,917.253,VALID,0,VALID,92.1875,VALID,-0.101885,VALID,18.2697,VALID,57,VALID,0.00205592,
2001-06-18, 02:37:00,VALID,917.254,VALID,0,VALID,92.0832,VALID,-0.0509425,VALID,18.2854,VALID,57,VALID,0,
2001-06-18, 02:38:00,VALID,917.268,VALID,0,VALID,92.2575,VALID,-0.0679233,VALID,18.2983,VALID,57,VALID,0,
2001-06-18, 02:39:00,VALID,917.268,VALID,0,VALID,92.2002,VALID,-0.0849042,VALID,18.3117,VALID,57,VALID,0.0291385,
2001-06-18, 02:40:00,VALID,917.257,VALID,0,VALID,91.8696,VALID,-0.0849042,VALID,18.3239,VALID,78,VALID,0.439063,
2001-06-18, 02:41:00,VALID,917.241,VALID,0,VALID,91.9078,VALID,-0.0679233,VALID,18.3209,VALID,92,VALID,0.350962,
2001-06-18, 02:42:00,VALID,917.234,VALID,0,VALID,92.1786,VALID,-0.0679233,VALID,18.3375,VALID,111,VALID,0.179482,
2001-06-18, 02:43:00,VALID,917.235,VALID,0,VALID,92.438,VALID,-0.0679233,VALID,18.3274,VALID,171,VALID,0.388622,
2001-06-18, 02:44:00,VALID,917.246,VALID,0,VALID,92.8996,VALID,-0.0509425,VALID,18.3338,VALID,185,VALID,0.543174,
2001-06-18, 02:45:00,VALID,917.244,VALID,0,VALID,92.7979,VALID,-0.0169808,VALID,18.3306,VALID,180,VALID,0.25641,
2001-06-18, 02:46:00,VALID,917.248,VALID,0,VALID,92.761,VALID,-0.0679233,VALID,18.3306,VALID,105,VALID,0.242578,
2001-06-18, 02:47:00,VALID,917.245,VALID,0,VALID,92.7826,VALID,-0.0509425,VALID,18.3407,VALID,5,VALID,0.361486,
2001-06-18, 02:48:00,VALID,917.252,VALID,0,VALID,92.8933,VALID,-0.0169808,VALID,18.2923,VALID,5,VALID,0.327734,
2001-06-18, 02:49:00,VALID,917.235,VALID,0,VALID,92.9301,VALID,0.0169808,VALID,18.2425,VALID,4,VALID,0.474159,
2001-06-18, 02:50:00,VALID,917.229,VALID,0,VALID,92.6249,VALID,0.0169808,VALID,18.1973,VALID,355,VALID,0.611842,
2001-06-18, 02:51:00,VALID,917.229,VALID,0,VALID,92.4113,VALID,0,VALID,18.129,VALID,357,VALID,0.577524,
2001-06-18, 02:52:00,VALID,917.227,VALID,0,VALID,92.5754,VALID,0,VALID,18.0937,VALID,6,VALID,0.471628,
2001-06-18, 02:53:00,VALID,917.241,VALID,0,VALID,92.6834,VALID,0.0169808,VALID,18.0778,VALID,8,VALID,0.122596,
2001-06-18, 02:54:00,VALID,917.234,VALID,0,VALID,92.6249,VALID,0.0169808,VALID,18.0548,VALID,8,VALID,0.000585938,
2001-06-18, 02:55:00,VALID,917.255,VALID,0,VALID,92.6288,VALID,0.0339617,VALID,18.1002,VALID,286,VALID,0.270481,
2001-06-18, 02:56:00,VALID,917.27,VALID,0,VALID,92.8208,VALID,-0.0169808,VALID,18.1597,VALID,236,VALID,0.662891,
2001-06-18, 02:57:00,VALID,917.287,VALID,0,VALID,92.6644,VALID,-0.0679233,VALID,18.2469,VALID,237,VALID,0.548478,
2001-06-18, 02:58:00,VALID,917.289,VALID,0,VALID,92.335,VALID,-0.0509425,VALID,18.3177,VALID,263,VALID,0.30551,
2001-06-18, 02:59:00,VALID,917.294,VALID,0,VALID,91.9663,VALID,-0.101885,VALID,18.3437,VALID,20,VALID,0.48097,
2001-06-18, 03:00:00,VALID,917.264,VALID,0,VALID,91.6458,VALID,-0.0679233,VALID,18.3214,VALID,18,VALID,0.745271,
2001-06-18, 03:01:00,VALID,917.247,VALID,0,VALID,91.5949,VALID,-0.0509425,VALID,18.2503,VALID,17,VALID,0.839543,
2001-06-18, 03:02:00,VALID,917.239,VALID,0,VALID,91.862,VALID,-0.0849042,VALID,18.1306,VALID,23,VALID,0.721094,
2001-06-18, 03:03:00,VALID,917.255,VALID,0,VALID,92.527,VALID,-0.0849042,VALID,18.0568,VALID,29,VALID,0.629856,
2001-06-18, 03:04:00,VALID,917.274,VALID,0,VALID,92.8462,VALID,-0.101885,VALID,18.0211,VALID,29,VALID,0.400977,
2001-06-18, 03:05:00,VALID,917.325,VALID,0,VALID,92.8526,VALID,-0.0849042,VALID,18.0047,VALID,29,VALID,0,
2001-06-18, 03:06:00,VALID,917.357,VALID,0,VALID,92.9022,VALID,-0.0679233,VALID,17.998,VALID,33,VALID,0,
2001-06-18, 03:07:00,VALID,917.371,VALID,0,VALID,93.0954,VALID,-0.0509425,VALID,18.0208,VALID,147,VALID,0,
2001-06-18, 03:08:00,VALID,917.388,VALID,0,VALID,93.0535,VALID,-0.101885,VALID,18.031,VALID,163,VALID,0,
2001-06-18, 03:09:00,VALID,917.405,VALID,0,VALID,93.0713,VALID,-0.0849042,VALID,18.0538,VALID,163,VALID,0,
2001-06-18, 03:10:00,VALID,917.398,VALID,0,VALID,92.939,VALID,-0.101885,VALID,18.0732,VALID,163,VALID,0,
2001-06-18, 03:11:00,VALID,917.36,VALID,0,VALID,92.4991,VALID,-0.0169808,VALID,18.0944,VALID,50,VALID,0.278083,
2001-06-18, 03:12:00,VALID,917.326,VALID,0,VALID,91.8887,VALID,0.0849042,VALID,18.0455,VALID,35,VALID,0.674414,
2001-06-18, 03:13:00,VALID,917.295,VALID,0,VALID,92.508,VALID,0.0169808,VALID,18.0206,VALID,45,VALID,0.680288,
2001-06-18, 03:14:00,VALID,917.298,VALID,0,VALID,92.6758,VALID,0.0169808,VALID,18.0259,VALID,34,VALID,0.183183,
2001-06-18, 03:15:00,VALID,917.311,VALID,0,VALID,92.5092,VALID,0.0169808,VALID,18.0292,VALID,31,VALID,0.255609,
2001-06-18, 03:16:00,VALID,917.317,VALID,0,VALID,92.2931,VALID,0.0509425,VALID,18.0393,VALID,10,VALID,0.593956,
2001-06-18, 03:17:00,VALID,917.324,VALID,0,VALID,92.2676,VALID,0.0509425,VALID,18.0488,VALID,349,VALID,0.480168,
2001-06-18, 03:18:00,VALID,917.312,VALID,0,VALID,91.9866,VALID,0.0679233,VALID,18.0614,VALID,355,VALID,0.487891,
2001-06-18, 03:19:00,VALID,917.288,VALID,0,VALID,91.8785,VALID,0.0339617,VALID,18.013,VALID,357,VALID,0.515414,
2001-06-18, 03:20:00,VALID,917.267,VALID,0,VALID,92.2994,VALID,0.0339617,VALID,17.9392,VALID,9,VALID,0.912891,
2001-06-18, 03:21:00,VALID,917.266,VALID,0,VALID,92.5385,VALID,0.0679233,VALID,17.9002,VALID,8,VALID,0.930889,
2001-06-18, 03:22:00,VALID,917.266,VALID,0,VALID,92.2969,VALID,0.0849042,VALID,17.9328,VALID,7,VALID,0.771382,
2001-06-18, 03:23:00,VALID,917.254,VALID,0,VALID,91.8709,VALID,0.0169808,VALID,17.9844,VALID,360,VALID,0.854167,
2001-06-18, 03:24:00,VALID,917.252,VALID,0,VALID,91.2821,VALID,0.0509425,VALID,18.0877,VALID,353,VALID,0.784539,
2001-06-18, 03:25:00,VALID,917.247,VALID,0,VALID,90.5014,VALID,0.0849042,VALID,18.2132,VALID,360,VALID,0.586138,
2001-06-18, 03:26:00,VALID,917.218,VALID,0,VALID,89.9635,VALID,0.0679233,VALID,18.3105,VALID,336,VALID,0.320703,
2001-06-18, 03:27:00,VALID,917.182,VALID,0,VALID,89.849,VALID,0.0339617,VALID,18.3488,VALID,337,VALID,0.000211149,
2001-06-18, 03:28:00,VALID,917.129,VALID,0,VALID,89.8605,VALID,0.0509425,VALID,18.3619,VALID,7,VALID,0.317969,
2001-06-18, 03:29:00,VALID,917.111,VALID,0,VALID,89.4688,VALID,0.101885,VALID,18.3912,VALID,27,VALID,0.542468,
2001-06-18, 03:30:00,VALID,917.088,VALID,0,VALID,89.1344,VALID,0.0339617,VALID,18.4459,VALID,30,VALID,0.607936,
2001-06-18, 03:31:00,VALID,917.084,VALID,0,VALID,88.8788,VALID,0.0509425,VALID,18.4849,VALID,35,VALID,0.603766,
2001-06-18, 03:32:00,VALID,917.077,VALID,0,VALID,88.5456,VALID,0.0509425,VALID,18.4939,VALID,38,VALID,0.279194,
2001-06-18, 03:33:00,VALID,917.112,VALID,0,VALID,88.407,VALID,0.0509425,VALID,18.5333,VALID,38,VALID,0.0268429,
2001-06-18, 03:34:00,VALID,917.138,VALID,0,VALID,88.4096,VALID,0.0509425,VALID,18.5661,VALID,60,VALID,0.20293,
2001-06-18, 03:35:00,VALID,917.177,VALID,0,VALID,88.819,VALID,0.0339617,VALID,18.5656,VALID,166,VALID,0.693412,
2001-06-18, 03:36:00,VALID,917.185,VALID,0,VALID,89.5159,VALID,0.0679233,VALID,18.5107,VALID,152,VALID,0.812109,